{"data":{"norad_id":56308,"intl_designator":"2023-057A","name":"POEM-2","alt_names":[],"object_type":"PAYLOAD","status":"ACTIVE","operator":null,"country":"IND","launch_date":"2023-04-22","launch_site_code":"SRILR","launch_vehicle":null,"mission":null,"orbit_class":"UNKNOWN","rcs_meters":null,"size_class":null,"mass_kg":null,"dimensions":null,"purposes":[],"wikipedia_slug":null,"has_3d_model":false,"image_url":null,"decayed_at":null,"tle_current":{"epoch":"2026-05-25T04:21:58.485024Z","epoch_age_seconds":59597,"freshness":"FRESH","line1":"1 56308U 23057A   26145.18192691  .00001956  00000+0  11155-3 0  9990","line2":"2 56308   9.8886  69.1278 0020998 325.1358  34.7479 14.94903859168811","mean_motion":14.94903859,"eccentricity":0.0020998,"inclination_deg":9.8886,"raan_deg":69.1278,"arg_perigee_deg":325.1358,"mean_anomaly_deg":34.7479,"bstar":0.00011155,"rev_number":16881,"period_min":96.327264882658,"perigee_km":568.05487470507,"apogee_km":597.28748473663,"semimajor_km":6960.8081797208,"source":"CELESTRAK","updated_at":"2026-05-25T13:37:59.410541Z"}}}